Location: Fours
(44.3167°N, 6.7000°E)
Time: 10:10:30
(UTC+00:00)

CSL-04 Rocket - Pass Details

Date: 30 November 2020
Orbit: 807 x 859 km, 98.9° (Epoch: 25 January)

Event Time Altitude Azimuth Distance (km) Brightness Sun altitude
Exits shadow 18:01:06 36° 35° (NE) 1,270 4.3 -21.8°
Drops below altitude 10° 18:04:50 10° 359° (N) 2,407 6.0 -22.5°
Sets 18:07:16 0° 353° (N) 3,339 6.8 -22.9°
